Date String (YYYY-MM-DD hh:mm:ss) UTC,Instrument flags,Ambient pressure (hPa),Sample flow (lpm),Bypass flow (lpm),Sample temperature (°C),Ambient temperature (°C),ASC tube jacket temperature (°C),LED temperature (°C),Box temperature (°C),Sample RH (%),Span deviation,Mass concentration (μg/m³),Mass concentration (μg/m³),Mass concentration (μg/m³)
DateTimeUTC,F1_M11,P_M11,Q1_M11,Q2_M11,T1_M11,T2_M11,T3_M11,T4_M11,T5_M11,U1_M11,ZSPAN_M11,X0_M11,X2_M11,X1_M11
2021-12-07 21:00:00,,0818.0,5.02,0.00,23.9,23.1,00.0,32.9,25.6,09.2,0000.0,0005.26,0000.96,0000.33
2021-12-07 21:01:00,,0818.0,4.98,0.00,23.9,23.1,00.0,32.9,25.6,09.3,0000.0,0004.23,0000.96,0000.33
2021-12-07 21:02:00,,0818.0,5.01,0.00,23.9,23.1,00.0,32.9,25.6,09.2,0000.0,0004.32,0000.98,0000.33
2021-12-07 21:03:00,,0818.0,4.99,0.00,23.9,23.1,00.0,32.9,25.6,09.2,0000.0,0004.36,0000.98,0000.33
2021-12-07 21:04:00,,0818.0,5.00,0.00,23.9,23.1,00.0,33.0,25.6,09.2,0000.0,0003.98,0000.98,0000.33
2021-12-07 21:05:00,,0818.1,5.01,0.00,23.9,23.1,00.0,33.0,25.6,09.2,0000.0,0004.10,0000.96,0000.32
2021-12-07 21:06:00,,0818.0,4.99,0.00,23.9,23.1,00.0,33.0,25.6,09.2,0000.0,0003.78,0000.91,0000.32
2021-12-07 21:07:00,,0818.0,5.01,0.00,23.9,23.1,00.0,33.0,25.6,09.2,0000.0,0003.77,0000.92,0000.32
2021-12-07 21:08:00,,0818.1,5.00,0.00,23.9,23.1,00.0,32.9,25.6,09.3,0000.0,0003.47,0000.89,0000.32
2021-12-07 21:09:00,,0818.2,4.99,0.00,23.9,23.1,00.0,33.0,25.6,09.4,0000.0,0003.06,0000.83,0000.31
2021-12-07 21:10:00,,0818.1,5.00,0.00,23.9,23.1,00.0,33.0,25.7,09.4,0000.0,0003.30,0000.80,0000.30
2021-12-07 21:11:00,,0818.1,5.00,0.00,23.9,23.1,00.0,33.0,25.7,09.3,0000.0,0003.53,0000.87,0000.31
2021-12-07 21:12:00,,0818.2,4.98,0.00,23.9,23.1,00.0,33.0,25.6,09.3,0000.0,0003.61,0000.93,0000.30
2021-12-07 21:13:00,,0818.2,5.01,0.00,23.9,23.1,00.0,32.9,25.6,09.3,0000.0,0003.67,0000.96,0000.29
2021-12-07 21:14:00,,0818.2,5.00,0.00,23.9,23.1,00.0,32.9,25.6,09.2,0000.0,0003.65,0000.96,0000.29
2021-12-07 21:15:00,,0818.1,5.00,0.00,23.9,23.1,00.0,32.9,25.6,09.3,0000.0,0003.30,0000.96,0000.29
2021-12-07 21:16:00,,0818.1,5.00,0.00,23.9,23.1,00.0,32.9,25.6,09.3,0000.0,0003.09,0000.95,0000.28
2021-12-07 21:17:00,,0818.2,5.00,0.00,23.9,23.1,00.0,32.9,25.6,09.3,0000.0,0002.94,0000.92,0000.28
2021-12-07 21:18:00,,0818.2,5.00,0.00,23.9,23.1,00.0,32.9,25.6,09.3,0000.0,0003.41,0000.87,0000.28
2021-12-07 21:19:00,,0818.1,4.99,0.00,23.9,23.1,00.0,32.9,25.6,09.1,0000.0,0003.87,0000.87,0000.28
2021-12-07 21:20:00,,0818.2,5.01,0.00,23.9,23.1,00.0,32.9,25.6,08.9,0000.0,0004.25,0000.86,0000.28
2021-12-07 21:21:00,,0818.1,4.99,0.00,23.9,23.1,00.0,32.9,25.6,08.9,0000.0,0004.25,0000.84,0000.28
2021-12-07 21:22:00,,0818.0,5.00,0.00,23.9,23.1,00.0,32.9,25.6,09.0,0000.0,0004.65,0000.87,0000.28
2021-12-07 21:23:00,,0818.0,5.00,0.00,23.9,23.1,00.0,32.9,25.7,09.0,0000.0,0005.03,0000.87,0000.28
2021-12-07 21:24:00,,0818.1,5.00,0.00,23.9,23.1,00.0,32.9,25.6,08.8,0000.0,0004.83,0000.83,0000.29
2021-12-07 21:25:00,,0818.2,5.00,0.00,23.9,23.1,00.0,33.0,25.6,08.9,0000.0,0004.66,0000.76,0000.28
2021-12-07 21:26:00,,0818.2,4.99,0.00,23.9,23.1,00.0,33.0,25.6,09.0,0000.0,0005.13,0000.75,0000.28
2021-12-07 21:27:00,,0818.2,5.01,0.00,23.9,23.1,00.0,33.0,25.7,09.1,0000.0,0005.33,0000.71,0000.29
2021-12-07 21:28:00,,0818.3,5.00,0.00,23.9,23.2,00.0,33.0,25.7,09.1,0000.0,0005.95,0000.67,0000.29
2021-12-07 21:29:00,,0818.3,4.99,0.00,23.9,23.2,00.0,33.0,25.7,09.0,0000.0,0005.41,0000.67,0000.28
2021-12-07 21:30:00,,0818.2,5.01,0.00,23.9,23.2,00.0,33.0,25.7,09.1,0000.0,0004.93,0000.67,0000.28
2021-12-07 21:31:00,,0818.2,4.99,0.00,23.9,23.2,00.0,33.0,25.7,09.1,0000.0,0004.59,0000.66,0000.27
2021-12-07 21:32:00,,0818.2,4.99,0.00,24.0,23.2,00.0,33.0,25.7,09.1,0000.0,0004.37,0000.66,0000.27
2021-12-07 21:33:00,,0818.1,5.02,0.00,24.0,23.2,00.0,33.0,25.7,09.0,0000.0,0004.14,0000.60,0000.27
2021-12-07 21:34:00,,0818.0,4.99,0.00,24.0,23.2,00.0,33.0,25.7,09.1,0000.0,0003.47,0000.56,0000.26
2021-12-07 21:35:00,,0818.0,5.01,0.00,24.0,23.2,00.0,33.0,25.7,09.1,0000.0,0003.49,0000.55,0000.26
2021-12-07 21:36:00,,0818.1,5.00,0.00,24.0,23.2,00.0,33.0,25.7,09.1,0000.0,0003.76,0000.57,0000.27
2021-12-07 21:37:00,,0818.1,5.00,0.00,24.0,23.2,00.0,33.0,25.8,09.1,0000.0,0003.37,0000.59,0000.27
2021-12-07 21:38:00,,0818.0,5.00,0.00,24.0,23.2,00.0,33.0,25.9,09.1,0000.0,0003.04,0000.60,0000.26
2021-12-07 21:39:00,,0818.0,4.99,0.00,24.0,23.2,00.0,33.0,25.8,09.0,0000.0,0002.13,0000.61,0000.26
2021-12-07 21:40:00,,0818.1,4.99,0.00,24.0,23.2,00.0,33.0,25.7,09.1,0000.0,0002.13,0000.61,0000.26
2021-12-07 21:41:00,,0818.0,5.00,0.00,24.0,23.2,00.0,33.0,25.8,09.1,0000.0,0002.23,0000.63,0000.27
2021-12-07 21:42:00,,0818.1,5.01,0.00,24.0,23.2,00.0,33.0,25.8,09.2,0000.0,0002.08,0000.66,0000.29
2021-12-07 21:43:00,,0818.0,5.00,0.00,24.0,23.2,00.0,33.0,25.8,09.3,0000.0,0001.82,0000.66,0000.29
2021-12-07 21:44:00,,0818.0,5.00,0.00,24.0,23.2,00.0,33.0,25.8,09.3,0000.0,0001.77,0000.68,0000.29
2021-12-07 21:45:00,,0818.0,5.00,0.00,24.0,23.2,00.0,33.0,25.8,09.3,0000.0,0001.88,0000.71,0000.29
2021-12-07 21:46:00,,0818.0,5.01,0.00,24.0,23.1,00.0,33.0,25.8,09.3,0000.0,0001.91,0000.70,0000.28
2021-12-07 21:47:00,,0818.0,4.99,0.00,24.0,23.1,00.0,33.0,25.8,09.2,0000.0,0001.76,0000.73,0000.29
2021-12-07 21:48:00,,0818.0,5.01,0.00,24.0,23.1,00.0,33.0,25.8,09.4,0000.0,0002.42,0000.79,0000.29
2021-12-07 21:49:00,,0818.0,5.00,0.00,24.0,23.1,00.0,33.0,25.8,09.2,0000.0,0002.63,0000.84,0000.30
2021-12-07 21:50:00,,0818.1,4.98,0.00,24.0,23.1,00.0,33.0,25.7,09.2,0000.0,0002.73,0000.86,0000.31
2021-12-07 21:51:00,,0818.2,5.01,0.00,24.0,23.1,00.0,33.0,25.7,09.2,0000.0,0002.95,0000.88,0000.31
2021-12-07 21:52:00,,0818.1,5.00,0.00,24.0,23.1,00.0,33.0,25.7,09.3,0000.0,0003.32,0000.88,0000.31
2021-12-07 21:53:00,,0818.2,4.99,0.00,24.0,23.1,00.0,33.0,25.7,09.3,0000.0,0003.73,0000.86,0000.31
2021-12-07 21:54:00,,0818.2,4.99,0.00,24.0,23.1,00.0,33.0,25.7,09.3,0000.0,0005.26,0000.85,0000.31
2021-12-07 21:55:00,,0818.2,4.99,0.00,24.0,23.2,00.0,33.0,25.7,09.3,0000.0,0006.22,0000.81,0000.32
2021-12-07 21:56:00,,0818.0,5.01,0.00,24.0,23.1,00.0,33.0,25.7,09.2,0000.0,0006.22,0000.78,0000.32
2021-12-07 21:57:00,,0818.1,4.98,0.00,24.0,23.1,00.0,33.0,25.7,09.2,0000.0,0006.27,0000.77,0000.33
2021-12-07 21:58:00,,0818.0,5.00,0.00,24.0,23.1,00.0,33.0,25.7,09.3,0000.0,0006.60,0000.77,0000.33
2021-12-07 21:59:00,,0818.1,5.00,0.00,24.0,23.1,00.0,33.0,25.7,09.3,0000.0,0005.93,0000.70,0000.34
